Regional Weather Roundup
Issued by NWS Spokane, WA

Home | Current Version | Previous Version | Text Only | Print | Product List | Glossary On
Versions: 1 2 3 4 5 6 7 8 9 10 11 12 13 14 15 16 17 18 19 20 21 22 23 24 25 26 27 28 29 30 31 32 33 34 35 36 37 38 39 40 41 42 43 44 45 46 47 48 49 50
206
NZUS01 KOTX 220425
RWROTX

Eastern Washington/Northern Idaho Roundup
National Weather Service, Spokane WA
900 PM PDT MON MAY 21 2018

Note: "fair" indicated few or no clouds below 12,000 feet with no
significant weather and/or obstructions to visibility.

...Northeast Washington and Northern Idaho Panhandle...

CITY           SKY/WX    TMP DP  RH WIND       PRES   REMARKS
Spokane Intl   PTCLDY    69  51  52 SW6       29.92R
Spokane Downto CLEAR     64  51  62 CALM      29.90R
Coeur d Alene  CLEAR     67  53  61 S7        29.92R
Deer Park      CLEAR     60  54  80 CALM      29.90R
Sandpoint      CLEAR     59  55  88 CALM      29.91R
Bonners Ferry  FAIR      66  48  52 CALM      29.89R

...Southeast Washington and southern Idaho Panhandle...

CITY           SKY/WX    TMP DP  RH WIND       PRES   REMARKS
Pullman/Moscow CLEAR     63  53  70 CALM      29.95R
Lewiston       CLEAR     71  54  54 S3        29.89R
Lowell           N/A     57  56  96 CALM      29.93R
Grangeville    FAIR      55  55 100 CALM      29.98R

...Columbia Basin...

CITY           SKY/WX    TMP DP  RH WIND       PRES   REMARKS
Ephrata        CLEAR     69  49  48 SW6       29.86S
Moses Lake     CLEAR     77  45  32 S5        29.87S
Richland       CLEAR     73  51  46 CALM      29.85R
Hermiston      CLEAR     71  53  52 E6        29.85R
Pendleton      CLEAR     64  52  64 E8        29.89R

...East Slopes Cascades...

CITY           SKY/WX    TMP DP  RH WIND       PRES   REMARKS
The Dalles     CLEAR     71  49  45 NW9G20    29.85R
Yakima         CLEAR     67  51  56 CALM      29.85S
Wenatchee      CLEAR     71  49  45 E6        29.86R
Winthrop       CLOUDY    66  54  66 N3        29.89R
Omak           CLEAR     67  54  63 CALM      29.86R
Sunnyside      CLEAR     63  50  63 S3        29.86R

...Southern British Columbia...

CITY           SKY/WX    TMP DP  RH WIND       PRES   REMARKS
Penticton      PTCLDY    63  48  59 N5        29.85R
Castlegar      PTCLDY    63  46  55 VRB2      29.87
Cranbrook      PTCLDY    66  37  34 W8        29.91R
Osoyoos          N/A     73  48  40 SE3         N/A
Creston          N/A     66  45  45 SW2         N/A

...Western Montana...

CITY           SKY/WX    TMP DP  RH WIND       PRES   REMARKS
Kalispell      PTCLDY    57  46  66 CALM      29.91R
Libby            N/A     63  48  59 SW5       29.90R
Missoula       PTCLDY    62  49  62 E8        29.96R

...Neighboring Cities...

CITY           SKY/WX    TMP DP  RH WIND       PRES   REMARKS
Seattle        PTCLDY    63  46  54 NW7       30.00S
Portland       PTCLDY    67  51  56 NW9       29.94S
Boise          CLEAR     70  51  51 NW7       29.84R
Great Falls    CLOUDY    61  51  70 S7        29.94R
Calgary        PTCLDY    64  39  39 SE9       29.94R



USA.gov is the U.S. government's official web portal to all federal, state and local government web resources and services.